Hourly Weather Klek

Today, 25 July, Sunday

Time Temperature Precipitation Wind Pressure Humidity
00:00 +20°C° 0 mm 3 mps 742 mmHg 65%
01:00 +20°C° 0 mm 3 mps 741 mmHg 65%
02:00 +19°C° 0 mm 3 mps 741 mmHg 68%
03:00 +19°C° 0 mm 3 mps 741 mmHg 70%
04:00 +19°C° 0 mm 2 mps 741 mmHg 73%
05:00 +20°C° 0 mm 3 mps 741 mmHg 70%
06:00 +21°C° 0 mm 3 mps 741 mmHg 68%
07:00 +21°C° 0 mm 3 mps 741 mmHg 67%
08:00 +24°C° 0 mm 3 mps 741 mmHg 61%
09:00 +26°C° 0 mm 3 mps 742 mmHg 55%
10:00 +28°C° 0 mm 3 mps 742 mmHg 49%
11:00 +28°C° 0 mm 3 mps 742 mmHg 48%
12:00 +28°C° 0 mm 3 mps 741 mmHg 48%
13:00 +28°C° 0 mm 4 mps 741 mmHg 48%
14:00 +28°C° 0 mm 3 mps 741 mmHg 51%
15:00 +27°C° 0 mm 3 mps 741 mmHg 54%
16:00 +26°C° 0 mm 3 mps 741 mmHg 57%
17:00 +25°C° 0.1 mm 2 mps 741 mmHg 63%
18:00 +24°C° 0.1 mm 2 mps 741 mmHg 69%
19:00 +21°C° 0.1 mm 2 mps 741 mmHg 74%
20:00 +21°C° 0 mm 2 mps 741 mmHg 72%
21:00 +21°C° 0 mm 3 mps 741 mmHg 70%
22:00 +21°C° 0 mm 3 mps 741 mmHg 68%
23:00 +21°C° 0 mm 3 mps 741 mmHg 68%

Tomorrow, 26 July, Monday

Time Temperature Precipitation Wind Pressure Humidity
00:00 +21°C° 0 mm 3 mps 741 mmHg 69%
01:00 +20°C° 0 mm 4 mps 740 mmHg 70%
02:00 +20°C° 0 mm 3 mps 740 mmHg 74%
03:00 +19°C° 0 mm 3 mps 740 mmHg 77%
04:00 +18°C° 0 mm 3 mps 740 mmHg 81%
05:00 +19°C° 0 mm 3 mps 740 mmHg 78%
06:00 +20°C° 0 mm 3 mps 740 mmHg 74%
07:00 +22°C° 0 mm 3 mps 740 mmHg 71%
08:00 +24°C° 0 mm 3 mps 740 mmHg 66%
09:00 +25°C° 0 mm 3 mps 740 mmHg 61%
10:00 +27°C° 0 mm 3 mps 740 mmHg 57%
11:00 +27°C° 0.2 mm 3 mps 740 mmHg 57%
12:00 +28°C° 0.2 mm 4 mps 740 mmHg 57%
13:00 +28°C° 0.2 mm 4 mps 740 mmHg 58%
14:00 +28°C° 0.3 mm 4 mps 740 mmHg 59%
15:00 +28°C° 0.3 mm 3 mps 740 mmHg 60%
16:00 +27°C° 0.3 mm 3 mps 740 mmHg 61%
17:00 +26°C° 1.5 mm 3 mps 740 mmHg 70%
18:00 +24°C° 1.5 mm 3 mps 740 mmHg 79%
19:00 +21°C° 1.5 mm 3 mps 740 mmHg 88%
20:00 +20°C° 0.2 mm 3 mps 740 mmHg 89%
21:00 +20°C° 0.2 mm 2 mps 740 mmHg 90%
22:00 +20°C° 0.2 mm 2 mps 740 mmHg 90%
23:00 +19°C° 0 mm 2 mps 740 mmHg 90%

Day after tomorrow, 27 July, Tuesday

Time Temperature Precipitation Wind Pressure Humidity
00:00 +19°C° 0 mm 2 mps 740 mmHg 90%
01:00 +19°C° 0 mm 2 mps 740 mmHg 90%
02:00 +19°C° 0 mm 3 mps 740 mmHg 90%
03:00 +19°C° 0 mm 3 mps 740 mmHg 89%
04:00 +19°C° 0 mm 3 mps 740 mmHg 88%
05:00 +20°C° 0 mm 3 mps 740 mmHg 84%
06:00 +21°C° 0 mm 3 mps 740 mmHg 80%
07:00 +21°C° 0 mm 2 mps 740 mmHg 76%
08:00 +22°C° 0 mm 3 mps 741 mmHg 74%
09:00 +24°C° 0 mm 3 mps 741 mmHg 71%
10:00 +25°C° 0 mm 4 mps 741 mmHg 69%
11:00 +26°C° 0.1 mm 4 mps 741 mmHg 66%
12:00 +27°C° 0.1 mm 4 mps 741 mmHg 63%
13:00 +27°C° 0.1 mm 4 mps 741 mmHg 60%
14:00 +28°C° 0.2 mm 3 mps 741 mmHg 59%
15:00 +28°C° 0.2 mm 3 mps 742 mmHg 57%
16:00 +28°C° 0.2 mm 3 mps 742 mmHg 55%
17:00 +27°C° 0.2 mm 3 mps 741 mmHg 60%
18:00 +26°C° 0.2 mm 2 mps 741 mmHg 65%
19:00 +25°C° 0.2 mm 2 mps 741 mmHg 69%
20:00 +24°C° 0 mm 2 mps 741 mmHg 69%
21:00 +24°C° 0 mm 2 mps 741 mmHg 68%
22:00 +23°C° 0 mm 2 mps 742 mmHg 68%
23:00 +23°C° 0 mm 2 mps 742 mmHg 68%

28 July, Wednesday

Time Temperature Precipitation Wind Pressure Humidity
00:00 +21°C° 0 mm 2 mps 742 mmHg 68%
01:00 +21°C° 0 mm 2 mps 741 mmHg 67%
02:00 +21°C° 0 mm 2 mps 741 mmHg 67%
03:00 +20°C° 0 mm 2 mps 741 mmHg 67%
04:00 +20°C° 0 mm 2 mps 741 mmHg 67%
05:00 +21°C° 0 mm 2 mps 742 mmHg 65%
06:00 +23°C° 0 mm 2 mps 742 mmHg 63%
07:00 +24°C° 0 mm 2 mps 742 mmHg 60%
08:00 +26°C° 0 mm 2 mps 742 mmHg 57%
09:00 +27°C° 0 mm 2 mps 742 mmHg 54%
10:00 +28°C° 0 mm 3 mps 742 mmHg 51%
11:00 +29°C° 0 mm 3 mps 742 mmHg 48%
12:00 +29°C° 0 mm 2 mps 742 mmHg 46%
13:00 +30°C° 0 mm 2 mps 741 mmHg 43%
14:00 +29°C° 0 mm 3 mps 741 mmHg 45%
15:00 +29°C° 0 mm 3 mps 741 mmHg 47%
16:00 +28°C° 0 mm 4 mps 741 mmHg 50%
17:00 +27°C° 0.1 mm 4 mps 741 mmHg 56%
18:00 +25°C° 0.1 mm 4 mps 741 mmHg 63%
19:00 +22°C° 0.1 mm 4 mps 741 mmHg 69%
20:00 +21°C° 0.3 mm 4 mps 742 mmHg 75%
21:00 +20°C° 0.3 mm 4 mps 742 mmHg 80%
22:00 +19°C° 0.3 mm 3 mps 742 mmHg 85%
23:00 +19°C° 0.8 mm 3 mps 742 mmHg 88%

29 July, Thursday

Time Temperature Precipitation Wind Pressure Humidity
00:00 +19°C° 0.8 mm 3 mps 742 mmHg 90%
01:00 +18°C° 0.8 mm 3 mps 742 mmHg 93%
02:00 +18°C° 0.1 mm 3 mps 742 mmHg 93%
03:00 +18°C° 0.1 mm 2 mps 743 mmHg 93%
04:00 +17°C° 0.1 mm 2 mps 743 mmHg 93%
05:00 +18°C° 0 mm 3 mps 743 mmHg 89%
06:00 +19°C° 0 mm 3 mps 743 mmHg 86%
07:00 +19°C° 0 mm 3 mps 743 mmHg 82%
08:00 +21°C° 0 mm 3 mps 743 mmHg 75%
09:00 +22°C° 0 mm 3 mps 743 mmHg 68%
10:00 +25°C° 0 mm 3 mps 743 mmHg 61%
11:00 +26°C° 0 mm 2 mps 743 mmHg 57%
12:00 +26°C° 0 mm 2 mps 743 mmHg 52%
13:00 +27°C° 0 mm 2 mps 743 mmHg 48%
14:00 +28°C° 0 mm 2 mps 743 mmHg 47%
15:00 +28°C° 0 mm 2 mps 742 mmHg 45%
16:00 +28°C° 0 mm 2 mps 742 mmHg 44%
17:00 +27°C° 0 mm 2 mps 742 mmHg 48%
18:00 +26°C° 0 mm 1 mps 742 mmHg 53%
19:00 +25°C° 0 mm 1 mps 741 mmHg 57%
20:00 +24°C° 0 mm 2 mps 741 mmHg 57%
21:00 +24°C° 0 mm 2 mps 741 mmHg 57%
22:00 +23°C° 0 mm 2 mps 741 mmHg 58%
23:00 +22°C° 0 mm 3 mps 741 mmHg 59%

30 July, Friday

Time Temperature Precipitation Wind Pressure Humidity
00:00 +21°C° 0 mm 3 mps 741 mmHg 61%
01:00 +21°C° 0 mm 3 mps 740 mmHg 62%
02:00 +20°C° 0 mm 3 mps 740 mmHg 66%
03:00 +20°C° 0 mm 3 mps 740 mmHg 70%
04:00 +19°C° 0 mm 3 mps 740 mmHg 74%
05:00 +21°C° 0 mm 4 mps 740 mmHg 70%
06:00 +22°C° 0 mm 4 mps 740 mmHg 67%
07:00 +23°C° 0 mm 5 mps 740 mmHg 63%
08:00 +26°C° 0 mm 5 mps 740 mmHg 58%
09:00 +27°C° 0 mm 5 mps 739 mmHg 53%
10:00 +29°C° 0 mm 5 mps 739 mmHg 48%
11:00 +30°C° 0 mm 5 mps 738 mmHg 45%
12:00 +32°C° 0 mm 5 mps 738 mmHg 42%
13:00 +33°C° 0 mm 5 mps 738 mmHg 39%
14:00 +32°C° 0 mm 5 mps 738 mmHg 42%
15:00 +32°C° 0 mm 5 mps 738 mmHg 45%
16:00 +30°C° 0 mm 5 mps 737 mmHg 49%
17:00 +28°C° 0.1 mm 5 mps 737 mmHg 57%
18:00 +26°C° 0.1 mm 4 mps 737 mmHg 65%
19:00 +25°C° 0.1 mm 4 mps 737 mmHg 73%
20:00 +24°C° 0.4 mm 3 mps 738 mmHg 77%
21:00 +22°C° 0.4 mm 3 mps 738 mmHg 81%
22:00 +21°C° 0.4 mm 2 mps 738 mmHg 86%
23:00 +20°C° 0 mm 2 mps 738 mmHg 86%
Show more